Location: Ferintosh
(52.7647°N, 112.9692°W)
Time: 13:43:26
(UTC+00:00)

Transit 2A Rocket - Pass Details

Date: 22 May 2024
Orbit: 583 x 910 km, 66.7° (Epoch: 22 June)

Event Time Altitude Azimuth Distance (km) Brightness Sun altitude
Rises 10:08:46 0° 161° (SSE) 2,984 7.7 -8.9°
Reaches altitude 10° 10:11:57 10° 137° (SE) 2,143 7.2 -8.6°
Maximum altitude 10:14:34 15° 104° (ESE) 1,905 7.4 -8.4°
Drops below altitude 10° 10:17:19 10° 72° (ENE) 2,268 8.4 -8.1°
Sets 10:20:50 0° 49° (NE) 3,277 10.5 -7.8°
